Change the Weather History Date:

Sunday, September 15, 2013

  Actual Average Record
Temperature  
Mean Temperature 84 °F -  
Max Temperature 93 °F 88 °F - ()
Min Temperature 74 °F 73 °F - ()
Cooling Degree Days 18    
Growing Degree Days 34 (Base 50)    
Moisture  
Dew Point 76 °F    
Average Humidity 87    
Maximum Humidity 100    
Minimum Humidity 62    
Precipitation  
Precipitation 0.08 in 0.26 in - ()
Sea Level Pressure  
Sea Level Pressure 29.72 in    
Wind  
Wind Speed 3 mph ()    
Max Wind Speed 10 mph    
Max Gust Speed -    
Visibility 4.6 miles    
Events Rain , Thunderstorm    
T = Trace of Precipitation, MM = Missing Value Source: Averaged Metar Reports

Daily Weather History Graph

Daily Weather History Graph

Search for Another Location

Airport or City:

Trip Planner

Search our weather history database for the weather conditions in past years. The results will help you decide how hot, cold, wet, or windy it might be!

Date:

Astronomy

Sep. 15, 2013 Rise Set
Actual Time 5:49 AM ICT 6:02 PM ICT
Civil Twilight 5:27 AM ICT 6:23 PM ICT
Nautical Twilight 5:02 AM ICT 6:48 PM ICT
Astronomical Twilight 4:37 AM ICT 7:13 PM ICT
Moon 2:34 PM ICT (9/15) 1:26 AM ICT (9/15)
Length of Visible Light 12h 56m
Length of Day
12h 13m
Waxing Gibbous, 77% of the Moon is Illuminated
Sep 15
Waxing Gibbous
Sep 19
Full
Sep 27
Last Quarter
Oct 5
New
Oct 12
First Quarter

Hourly Weather History & Observations

Time (ICT) Temp. Heat Index Dew Point Humidity Pressure Visibility Wind Dir Wind Speed Gust Speed Precip Events Conditions
12:00 AM 77.0 °F - 75.2 °F 94% 29.77 in 4.3 mi SSE 2.3 mph - N/A   Mostly Cloudy
1:00 AM 76 °F - 74 °F 92% 29.77 in 4 mi East 1.2 mph - -   Mist
1:00 AM 77.0 °F - 75.2 °F 94% 29.77 in 4.3 mi East 1.2 mph - N/A   Mostly Cloudy
4:00 AM 75.2 °F - 73.4 °F 94% 29.71 in 4.3 mi South 2.3 mph - N/A   Mostly Cloudy
5:00 AM 75.2 °F - 73.4 °F 94% 29.74 in 3.7 mi SSE 3.5 mph - N/A Rain Light Rain
6:00 AM 75.2 °F - 73.4 °F 94% 29.74 in 3.7 mi East 1.2 mph - N/A Rain Light Rain
6:30 AM 75.2 °F - 73.4 °F 94% 29.74 in 5.0 mi South 1.2 mph - N/A   Overcast
7:00 AM 77 °F - 76 °F 95% 29.79 in 4 mi SSE 2.3 mph - - Rain Light Rain
7:00 AM 77.0 °F - 75.2 °F 94% 29.74 in 5.0 mi SSE 2.3 mph - N/A   Overcast
8:00 AM 78.8 °F - 77.0 °F 94% 29.77 in 4.3 mi SW 4.6 mph - N/A   Overcast
9:00 AM 80.6 °F 87.1 °F 77.0 °F 89% 29.77 in 5.0 mi SW 4.6 mph - N/A   Overcast
10:00 AM 80.6 °F 87.1 °F 77.0 °F 89% 29.77 in 5.0 mi SW 2.3 mph - N/A   Mostly Cloudy
11:00 AM 82.4 °F 92.4 °F 78.8 °F 89% 29.74 in 5.0 mi NE 3.5 mph - N/A   Mostly Cloudy
12:00 PM 84.2 °F 94.1 °F 77.0 °F 79% 29.71 in 5.0 mi NW 2.3 mph - N/A   Mostly Cloudy
1:00 PM 87.8 °F 99.7 °F 77.0 °F 70% 29.68 in 5.6 mi SSE 5.8 mph - N/A   Mostly Cloudy
2:00 PM 89.6 °F 99.8 °F 75.2 °F 62% 29.65 in 5.6 mi West 10.4 mph - N/A   Mostly Cloudy
3:00 PM 86.0 °F 95.1 °F 75.2 °F 70% 29.62 in 3.1 mi West 10.4 mph - N/A Rain Light Rain
4:00 PM 86.0 °F 95.1 °F 75.2 °F 70% 29.62 in 5.6 mi West 8.1 mph - N/A   Mostly Cloudy
5:00 PM 87.8 °F 97.6 °F 75.2 °F 66% 29.62 in 5.6 mi SW 8.1 mph - N/A   Mostly Cloudy
5:30 PM 84.2 °F 94.1 °F 77.0 °F 79% 29.62 in 5.0 mi South 3.5 mph - N/A   Mostly Cloudy
6:00 PM 82.4 °F 90.9 °F 77.0 °F 84% 29.65 in 4.3 mi SSE 6.9 mph - N/A   Overcast
7:00 PM 80 °F - 76 °F 83% 29.70 in 4 mi SW 9.2 mph - - Thunderstorm Thunderstorm
7:00 PM 80.6 °F 86.2 °F 75.2 °F 84% 29.68 in 4.3 mi SW 9.2 mph - N/A Thunderstorm Thunderstorm
8:00 PM 77.0 °F - 75.2 °F 94% 29.74 in 4.3 mi SE 2.3 mph - N/A Rain Light Rain
9:00 PM 77.0 °F - 77.0 °F 100% 29.74 in 5.0 mi ESE 3.5 mph - N/A Rain Light Rain
10:00 PM 77.0 °F - 77.0 °F 100% 29.74 in 5.0 mi East 2.3 mph - N/A Rain Light Rain
11:00 PM 77.0 °F - 77.0 °F 100% 29.74 in 5.0 mi South 3.5 mph - N/A   Overcast